Location: Marengo
(51.4813°N, 109.7825°W)
Time: 00:21:46
(UTC+00:00)

BlueWalker 3 - Pass Details

Date: 07 December 2022
Orbit: 499 x 517 km, 53.2° (Epoch: 26 January)

Event Time Altitude Azimuth Distance (km) Brightness Sun altitude
Rises 01:49:11 0° 289° (WNW) 2,632 6.6 -23.4°
Reaches altitude 10° 01:51:26 10° 285° (WNW) 1,739 5.6 -23.8°
Enters shadow 01:55:06 53° 219° (SW) 630 2.5 -24.3°
